Location: ČR
(50.0000°N, 15.0000°E)
Time: 07:16:26
(UTC+02:00)

A-11 Canister half - Pass Details

Date: 17 March 2026
Orbit: 1514 x 1685 km, 47.2° (Epoch: 18 April)

Event Time Altitude Azimuth Distance (km) Brightness Sun altitude
Rises 17:18:37 0° 275° (W) 4,900 13.5 7.1°
Reaches altitude 10° 17:21:46 10° 274° (W) 3,927 13.2 6.6°
Maximum altitude 17:31:50 73° 192° (SSW) 1,750 9.6 5.0°
Drops below altitude 10° 17:41:56 10° 111° (ESE) 3,934 10.6 3.3°
Sets 17:45:04 0° 109° (ESE) 4,910 11.1 2.8°
